Temp
20 21 22 21 22 21 22 22 23 23 22 22 22 22 21 21 20 20 20 19 19 19 19 18 19 18 18 18 18 18 18 18 18 18 18 18 17 17 18 18 18 18 18
25 23 22 22 22 21 22 22 22 22 22 22 21 21 21 21 21 20 20 19 19 19 18 18 19 19 18 18 18 18 18 18 18 18 18 18 17 17 17 17 17 17 18
25 24 22 22 21 21 21 22 22 21 22 21 22 21 21 21 20 20 20 19 19 19 18 18 18 18 18 18 18 18 18 18 18 17 18 17 17 17 17 17 17 17 17
25 24 21 21 19 20 20 21 21 21 21 21 21 21 21 20 20 20 19 19 19 19 19 18 18 18 18 18 18 18 17 17 17 18 17 17 17 16 16 17 17 17 17
23 23 22 20 18 19 20 20 21 21 20 20 20 20 20 20 21 20 20 19 19 19 19 18 18 18 18 18 18 17 17 17 17 17 17 17 17 16 16 16 16 16 16
23 23 22 21 18 18 20 20 21 21 20 19 19 20 21 21 20 20 19 19 19 19 19 18 17 18 17 17 17 17 17 17 17 17 17 16 16 16 15 16 16 16 16
23 22 21 20 18 18 19 20 20 21 21 20 19 20 20 19 19 19 19 19 19 19 18 18 17 17 17 17 17 17 17 16 17 17 17 16 16 15 17 16 16 16 16
23 22 21 20 18 18 18 19 19 20 20 20 18 19 19 20 19 18 18 18 19 18 18 17 17 17 17 17 17 17 17 16 16 17 17 16 15 17 16 15 15 15 15
22 22 21 20 19 18 18 18 19 19 20 19 19 18 19 18 17 16 17 18 18 18 18 17 17 17 16 17 17 17 17 16 16 16 16 16 17 16 14 14 14 14 14
21 21 20 20 19 18 18 18 18 18 19 19 18 18 17 18 19 19 17 17 17 17 17 17 17 17 16 17 17 17 17 17 16 16 16 16 16 14 14 13 14 13 13
20 20 20 19 18 18 18 18 18 17 18 18 18 18 18 18 17 17 16 17 17 17 16 17 17 16 16 16 16 16 16 16 16 16 16 15 15 14 14 13 13 13 13
18 19 19 19 18 18 18 18 17 17 17 17 17 17 17 17 18 18 18 17 16 16 17 17 16 16 16 15 15 16 15 15 15 15 15 15 14 14 13 13 13 13 13
17 18 19 19 18 18 17 17 17 17 16 17 16 17 16 17 17 17 17 17 16 15 15 16 16 15 15 15 15 15 15 15 15 15 14 14 14 13 13 13 13 13 12
17 17 17 17 17 17 17 17 17 17 16 16 16 16 16 15 15 14 14 16 15 15 15 15 15 15 14 14 14 15 14 14 14 14 14 14 14 14 13 13 13 12 13
18 16 17 17 16 16 16 16 17 17 17 16 15 16 15 14 14 14 14 16 15 15 15 15 15 14 14 14 14 14 14 13 13 14 14 14 14 14 13 13 12 12 12
18 16 16 16 16 16 16 17 17 17 16 15 15 15 15 14 14 14 14 15 14 15 14 15 15 14 14 14 14 14 13 13 13 13 14 13 14 14 13 13 12 12 12
18 16 15 15 15 16 16 16 16 16 15 15 15 15 15 14 14 14 14 14 14 14 14 14 14 14 14 14 14 13 13 13 13 13 13 14 13 13 14 14 13 12 12
18 16 15 15 16 15 15 15 16 15 15 15 15 14 14 14 14 14 14 14 14 14 14 14 14 14 14 14 13 13 13 13 13 13 13 13 13 13 13 13 13 12 12
17 16 15 15 15 15 15 14 15 15 14 14 14 14 14 14 13 14 14 14 14 14 14 14 14 14 14 14 14 13 13 13 13 13 13 13 13 13 13 13 12 12 12
17 16 15 15 14 15 14 14 14 13 14 13 14 14 13 13 13 14 14 14 14 13 12 13 13 13 14 14 14 13 13 13 13 13 13 12 12 12 13 13 12 12 12
16 15 15 14 14 14 14 13 13 13 13 13 13 13 14 14 13 14 14 14 14 13 12 13 13 13 13 14 13 12 12 12 12 12 12 12 12 12 12 12 12 12 12
15 14 14 14 14 14 14 13 13 13 13 13 14 14 13 13 13 13 13 13 13 12 12 13 13 13 13 13 14 14 13 13 12 12 12 12 12 12 12 11 12 12 12
16 14 14 13 14 13 13 13 13 13 13 13 13 13 13 13 13 13 13 12 12 12 12 13 13 14 14 13 14 16 14 16 14 13 12 12 12 12 12 11 11 12 13
16 15 13 13 13 13 13 14 14 13 13 13 13 13 12 12 13 13 13 13 13 12 12 13 13 14 14 13 13 14 15 15 17 15 13 12 12 12 12 12 12 12 11
16 15 13 13 13 13 13 14 13 13 13 13 13 13 13 12 12 12 12 14 12 12 12 13 13 14 14 14 14 14 14 14 14 15 15 13 13 13 12 12 12 13 13
15 14 12 12 12 13 13 13 13 14 13 13 13 13 13 13 12 12 12 12 13 13 13 13 14 13 14 14 14 14 15 15 14 14 15 15 15 14 12 13 12 14 14
Height
756 758 760 761 764 769 771 774 776 777 779 781 784 788 791 794 797 799 802 806 809 812 814 815 816 818 819 821 823 825 827 829 832 834 835 837 840 841 842 844 846 848 849
752 756 759 761 764 767 769 773 776 776 778 780 783 787 790 793 795 798 802 807 810 813 815 816 817 819 821 822 824 827 829 831 833 836 837 839 842 844 845 847 849 850 852
751 755 758 760 764 767 769 771 775 777 779 781 782 785 788 792 795 798 802 804 810 813 816 817 818 820 821 823 826 828 830 833 836 838 840 842 845 847 849 850 851 852 855
752 755 757 759 763 767 771 772 775 779 780 782 783 785 787 790 793 797 801 805 809 812 816 819 820 821 823 825 828 829 832 835 838 840 843 845 848 850 851 853 855 856 858
751 754 757 760 763 767 771 773 775 779 782 783 784 785 788 791 793 796 798 804 809 812 815 818 821 822 824 827 829 831 834 836 840 842 845 849 850 852 854 856 858 860 861
751 754 756 759 764 767 770 773 774 778 781 783 785 785 787 791 793 800 803 805 810 812 815 818 821 824 826 828 831 834 836 839 843 846 848 850 853 855 856 858 861 862 865
750 754 756 759 763 766 769 772 773 775 779 782 784 786 789 791 797 801 807 806 811 813 815 818 819 824 828 830 833 836 839 841 845 847 850 853 855 856 857 860 863 865 867
749 753 756 759 762 766 768 771 774 775 779 780 783 785 786 792 796 803 809 811 813 815 817 819 821 824 829 831 835 838 841 843 847 849 852 854 856 856 859 862 865 866 869
749 752 755 757 760 765 768 770 773 775 778 781 784 787 790 790 795 802 809 813 816 817 821 820 823 825 830 833 835 839 842 845 849 852 853 856 855 859 862 865 867 868 871
747 750 754 756 759 762 766 768 772 774 777 780 783 785 788 791 792 795 802 815 820 816 822 823 823 827 831 835 837 841 844 847 851 853 855 856 858 861 864 866 869 870 873
745 747 751 754 756 759 764 766 771 773 775 777 780 783 786 789 791 796 800 808 816 817 820 822 823 828 833 836 839 843 846 850 852 855 857 858 860 863 866 867 870 872 874
741 744 748 752 755 757 761 764 768 770 772 775 778 782 783 787 790 794 797 801 811 816 816 820 823 829 835 839 841 844 848 850 853 856 858 860 862 865 866 868 871 874 876
742 742 745 748 753 755 759 761 764 766 769 771 776 780 782 786 791 794 798 801 807 812 815 821 825 830 835 839 842 844 847 851 853 857 859 862 863 865 867 871 872 876 878
741 742 742 745 751 753 757 759 761 763 766 768 773 778 781 785 789 793 798 799 804 806 812 820 825 830 834 838 841 844 848 852 854 857 861 862 864 866 868 870 874 876 879
735 741 742 743 747 751 754 757 759 762 764 766 770 774 778 783 788 791 795 797 802 804 810 819 824 829 833 837 841 845 848 852 855 858 861 863 866 868 870 871 875 877 881
730 735 740 741 745 749 753 754 757 760 762 765 768 772 776 780 785 789 791 795 800 804 810 818 823 829 833 837 841 845 850 853 857 859 862 865 867 870 871 872 875 878 882
723 731 735 737 742 746 750 752 755 757 760 763 766 770 774 777 781 786 790 793 797 803 808 816 823 828 833 837 842 845 849 854 857 860 862 865 869 872 873 874 876 879 882
719 726 733 734 739 743 747 750 753 755 758 761 764 767 770 774 779 782 785 791 795 800 806 814 821 827 831 837 842 847 850 854 858 861 861 865 869 871 873 874 877 879 881
713 720 728 731 736 739 743 747 751 753 756 758 761 764 768 771 775 779 781 787 791 797 803 812 819 824 829 836 842 847 849 853 858 861 861 864 867 870 873 874 877 879 881
709 714 724 728 733 736 742 746 750 752 754 756 758 761 765 767 770 774 774 781 787 794 801 809 815 823 828 835 842 847 851 854 857 860 862 863 866 868 871 873 875 878 880
704 709 716 723 729 733 738 743 747 749 752 754 755 758 759 762 765 768 767 776 782 789 796 805 813 819 828 835 842 847 853 853 856 858 861 864 864 867 868 869 872 875 877
697 704 711 717 724 729 734 740 745 748 750 751 752 753 753 755 758 760 765 768 776 785 793 801 808 816 824 830 835 842 849 854 855 856 858 861 863 863 865 867 868 869 872
692 697 704 711 719 726 732 738 743 746 748 749 749 749 749 748 749 754 759 767 773 781 789 796 803 809 818 827 831 834 842 842 849 853 855 858 859 860 861 863 864 864 865
685 694 700 707 715 723 729 735 739 743 745 746 747 748 749 750 750 753 757 763 770 779 786 793 800 807 813 821 828 829 832 834 839 847 851 853 854 856 858 857 858 860 860
684 691 697 705 713 719 726 732 736 741 744 744 746 748 750 752 754 755 757 763 770 777 784 792 798 804 810 816 821 827 829 832 835 838 841 846 849 848 849 850 852 852 853
682 688 697 701 710 716 723 729 734 739 741 743 745 747 750 752 756 759 761 764 770 777 782 789 793 800 805 812 816 820 823 827 830 832 835 837 838 841 841 844 844 843 845
Wind_Speed
15 14 12 16 14 19 20 20 21 23 29 32 31 29 31 29 30 31 29 28 27 26 27 25 25 23 22 22 23 25 26 25 25 25 25 24 23 24 25 26 25 24 27
18 17 15 17 17 21 22 21 21 24 29 34 31 31 31 31 32 31 30 28 27 27 26 25 24 23 24 25 25 25 25 26 26 26 25 25 24 24 25 26 24 25 25
19 19 19 19 19 23 23 23 21 24 27 32 32 32 33 33 33 32 31 30 28 28 25 24 25 24 24 25 26 27 28 28 26 25 25 23 23 24 25 27 27 27 27
19 20 20 20 21 23 23 22 21 23 26 29 32 33 35 34 34 33 32 29 28 29 26 23 23 24 25 27 28 30 30 29 28 27 22 23 24 25 26 26 26 26 26
19 18 19 20 20 21 23 23 22 21 24 27 30 33 33 33 34 35 35 30 28 27 27 23 23 26 29 30 31 31 31 31 30 25 25 21 22 23 24 22 23 24 23
19 17 17 20 21 19 23 24 24 23 23 24 27 31 33 34 36 31 31 30 27 26 27 26 26 28 31 32 32 31 30 31 28 23 21 21 20 21 22 22 22 21 20
20 17 17 18 21 21 22 25 25 25 25 25 27 29 29 33 32 28 27 29 27 27 27 26 29 31 32 32 31 31 30 30 23 22 21 20 19 19 18 17 17 16 16
19 17 17 17 21 21 22 24 25 26 24 26 28 29 32 27 26 22 22 22 22 23 25 28 30 32 33 31 30 29 29 27 22 21 20 18 19 17 17 18 17 17 15
17 17 17 18 20 21 21 23 24 23 24 24 25 26 21 19 22 19 16 16 19 21 24 29 31 32 32 31 29 29 28 26 20 18 18 17 17 18 18 18 17 18 17
19 18 19 19 21 21 22 21 24 23 22 23 23 23 23 27 27 29 24 15 19 21 26 29 31 32 32 31 29 27 26 24 18 17 16 16 17 19 18 18 16 17 17
18 19 20 20 21 21 22 21 21 22 23 24 25 26 26 29 28 26 24 22 21 25 30 31 31 32 31 30 28 27 25 17 16 15 15 18 18 18 17 17 18 18 19
19 20 22 21 22 22 22 21 22 22 24 26 26 27 31 31 30 32 27 30 27 29 31 31 33 33 29 24 24 25 16 16 15 16 17 19 19 18 19 19 18 18 18
14 21 22 22 22 22 22 21 20 21 25 27 29 32 35 36 35 31 34 31 28 30 29 29 33 27 23 22 21 18 16 17 15 16 17 19 19 19 19 18 18 17 18
16 20 23 22 22 21 20 21 18 21 26 30 34 36 37 31 28 26 23 30 30 30 33 26 27 23 23 21 21 20 18 15 17 17 19 19 19 19 19 19 18 18 18
21 19 23 22 22 20 18 20 18 20 24 27 35 41 36 25 21 21 27 30 28 28 32 27 25 24 22 22 21 20 17 17 18 18 18 20 20 19 19 19 18 17 16
22 22 23 22 21 20 19 19 19 22 24 28 34 40 37 29 23 21 24 31 32 32 35 28 27 24 22 22 20 19 17 17 19 18 17 19 19 18 18 19 18 17 16
24 22 25 24 22 21 20 19 20 21 23 27 31 34 37 32 28 29 27 31 31 35 37 26 25 21 20 19 18 19 18 18 21 18 18 17 18 17 16 16 17 17 16
22 25 23 23 23 21 22 22 20 22 22 25 27 30 32 31 32 28 31 31 34 38 37 27 26 23 21 20 18 17 17 17 18 19 18 18 17 16 17 17 18 18 18
22 25 25 27 24 23 21 21 18 21 23 23 25 27 31 34 32 32 31 32 36 39 37 32 25 24 22 20 17 17 17 17 17 17 18 18 17 17 16 18 18 17 17
22 24 25 27 22 22 22 21 18 17 17 19 21 25 29 29 35 34 33 36 38 37 33 32 28 22 22 22 17 14 12 13 14 15 16 17 17 18 17 16 17 16 17
22 24 29 28 26 26 25 22 17 16 16 18 21 21 26 31 33 38 33 38 39 38 35 35 29 27 20 21 18 11 9 10 12 13 15 16 17 19 19 19 18 17 18
26 26 28 29 29 29 27 19 15 14 15 15 18 23 30 33 32 36 31 39 41 36 34 36 32 25 20 25 14 17 5 5 10 14 15 18 18 18 18 20 21 20 18
27 29 28 30 31 30 26 17 15 14 10 12 15 15 16 28 32 30 40 39 39 35 35 37 37 30 22 24 19 10 4 5 11 11 17 18 18 19 20 22 23 26 23
27 26 28 31 31 31 23 18 21 14 10 9 15 12 13 17 27 33 38 37 35 32 32 36 35 31 25 24 18 10 11 12 5 5 12 20 19 21 22 22 24 26 24
25 26 27 28 29 28 22 20 20 14 12 14 13 15 17 18 20 25 33 31 31 32 32 35 34 31 28 26 21 15 9 8 8 3 4 12 19 24 25 26 24 25 26
23 24 25 28 26 27 23 20 21 15 14 16 13 15 18 21 23 22 24 26 26 27 30 36 38 36 32 28 28 24 19 10 8 5 2 8 18 18 28 26 31 33 33
Wind_Direction
179 172 179 179 171 176 181 189 191 191 189 188 184 180 176 170 166 163 162 161 157 156 149 145 143 136 133 133 132 135 137 134 131 125 122 119 116 116 119 120 112 113 115
180 188 191 187 175 177 180 185 190 189 188 188 183 181 177 173 171 167 163 159 157 155 150 149 144 140 138 140 145 142 137 132 129 131 126 121 117 114 121 117 115 118 118
172 182 184 185 181 180 184 183 188 188 188 189 185 182 180 176 173 168 165 159 160 159 153 147 144 142 142 148 145 142 136 133 133 128 123 118 119 117 119 120 119 117 114
170 175 180 185 183 182 185 183 182 185 188 189 188 185 182 179 174 171 167 162 165 164 159 152 148 145 150 151 146 143 141 138 133 129 121 120 118 119 117 116 114 112 111
174 179 183 186 183 184 186 184 182 183 189 192 189 185 183 181 179 176 170 165 166 167 165 159 154 153 155 152 150 148 146 142 141 131 126 125 124 120 115 113 112 116 113
178 182 186 189 182 184 186 188 184 187 185 187 190 189 189 186 180 176 171 167 167 168 164 164 159 160 158 156 154 152 149 145 138 131 128 123 122 121 118 115 118 115 115
176 180 184 191 186 187 192 192 191 190 191 189 192 192 188 186 180 178 178 168 171 171 167 168 163 163 161 159 155 153 150 145 139 134 132 128 125 125 138 144 142 138 134
177 180 184 191 191 190 193 199 195 195 195 196 190 192 193 190 179 180 182 173 175 175 171 168 164 165 164 162 159 155 153 149 138 138 137 133 136 136 135 135 138 141 149
182 185 186 190 191 193 199 201 205 199 202 201 198 196 201 193 170 170 182 182 185 177 181 170 169 168 168 164 160 159 159 151 141 141 137 138 145 137 135 138 137 134 135
187 192 195 193 192 193 201 206 209 206 204 203 201 197 194 185 174 169 170 201 198 185 186 175 170 171 169 164 161 162 159 156 146 145 146 143 153 138 140 139 140 135 138
192 195 197 200 197 197 204 206 215 208 209 202 196 194 189 185 183 180 178 187 206 192 187 179 171 172 167 164 162 162 157 156 153 153 150 150 153 148 149 145 143 139 139
192 192 196 202 200 199 207 211 215 215 209 204 193 193 188 185 186 187 192 188 199 195 191 178 173 170 163 159 163 166 163 160 156 155 152 160 153 153 148 151 148 144 144
199 191 194 198 203 202 207 210 219 205 205 198 192 186 181 181 178 185 191 189 191 190 178 170 170 163 166 165 165 168 167 166 161 160 158 163 158 154 151 152 147 151 151
206 198 194 195 198 205 209 211 207 203 200 192 188 186 183 186 187 191 192 188 200 179 174 166 167 170 168 168 168 170 168 168 164 159 167 165 159 158 157 155 155 156 160
204 203 197 194 196 204 210 208 202 209 204 203 194 193 192 192 196 194 195 187 188 176 180 170 170 169 168 170 170 173 167 168 162 163 166 167 170 166 162 159 159 162 165
202 200 198 191 194 198 209 212 211 211 207 200 195 195 205 200 209 195 187 187 188 188 182 174 172 173 170 172 171 173 172 171 171 167 164 172 175 173 169 163 165 167 174
202 195 193 190 189 200 211 208 214 211 207 204 204 209 215 221 203 194 189 186 184 189 186 169 171 172 170 169 172 173 172 174 177 174 168 169 175 180 178 175 172 174 178
189 191 193 190 191 200 209 208 211 207 204 209 210 208 214 211 201 191 184 182 184 188 186 174 173 173 171 171 172 176 173 176 179 184 175 173 180 183 187 184 187 185 183
192 188 188 190 190 198 202 202 201 209 210 213 210 209 215 217 207 202 189 188 189 184 183 175 173 175 169 173 173 177 175 177 184 189 183 182 185 186 190 194 197 198 197
188 186 182 185 185 194 196 200 203 207 212 216 223 225 224 217 213 204 189 191 186 182 174 174 171 174 173 174 171 169 182 183 188 195 195 190 196 196 197 195 198 205 208
182 180 176 178 187 186 190 187 194 199 208 219 226 229 232 230 223 208 188 197 191 187 178 177 170 162 167 170 157 150 175 184 196 196 202 206 204 206 204 203 201 203 211
182 179 172 177 184 187 189 184 190 194 201 214 225 233 240 236 224 214 205 182 181 175 173 173 169 161 164 173 173 164 166 189 214 212 210 214 215 208 216 213 210 210 210
185 177 173 173 182 184 182 181 185 193 199 210 218 227 245 222 208 182 186 177 174 172 172 175 173 171 166 181 177 169 157 199 182 210 218 221 219 219 220 223 224 222 219
188 177 173 174 179 184 178 181 183 175 185 198 190 193 184 190 190 188 180 182 184 176 174 179 178 177 172 178 183 190 185 154 186 188 218 222 221 225 228 224 224 230 227
178 174 171 169 175 180 179 185 185 187 200 188 181 175 183 178 163 180 176 180 186 180 181 179 178 181 185 182 188 183 175 164 165 154 186 203 221 225 227 228 227 227 230
173 167 170 166 170 175 179 187 194 196 181 174 173 162 174 180 177 175 167 169 177 186 193 188 190 188 189 191 193 194 187 180 182 173 176 201 218 225 226 229 233 235 239